When you browse on this site, cookies collect data to enhance your experience and personalize the content and advertising you see.
Visit our Privacy Policy to learn more. By continuing to use the site, you agree to this use of cookies and data.
  • In Austria
  • List of Countries
  • For 7 days
  • Water Temperature
  • Satellite Maps
  • Weather Map
  • News
  • Weather Widgets
  • user-avatar
    Login

    Hourly Weather Rothenburg ob der Tauber

    Today, 23 April, Tuesday

    Time Temperature Precipitation Wind Pressure Humidity
    00:00 +10°C° 0 mm 5 mps 714 mmHg 67%
    01:00 +9°C° 0 mm 5 mps 714 mmHg 72%
    02:00 +9°C° 0 mm 5 mps 713 mmHg 74%
    03:00 +8°C° 0 mm 5 mps 713 mmHg 76%
    04:00 +8°C° 0 mm 5 mps 713 mmHg 79%
    05:00 +8°C° 0 mm 5 mps 712 mmHg 79%
    06:00 +9°C° 0 mm 6 mps 712 mmHg 80%
    07:00 +9°C° 0 mm 6 mps 712 mmHg 80%
    08:00 +10°C° 0 mm 6 mps 712 mmHg 75%
    09:00 +13°C° 0 mm 6 mps 712 mmHg 71%
    10:00 +15°C° 0 mm 6 mps 712 mmHg 66%
    11:00 +16°C° 0 mm 5 mps 712 mmHg 62%
    12:00 +17°C° 0 mm 5 mps 711 mmHg 59%
    13:00 +20°C° 0 mm 4 mps 711 mmHg 56%
    14:00 +20°C° 0 mm 4 mps 711 mmHg 55%
    15:00 +20°C° 0 mm 4 mps 711 mmHg 54%
    16:00 +21°C° 0 mm 3 mps 710 mmHg 53%
    17:00 +19°C° 0 mm 3 mps 710 mmHg 60%
    18:00 +18°C° 0 mm 2 mps 710 mmHg 66%
    19:00 +16°C° 0 mm 2 mps 710 mmHg 73%
    20:00 +15°C° 0.3 mm 2 mps 710 mmHg 76%
    21:00 +15°C° 0.3 mm 2 mps 711 mmHg 79%
    22:00 +13°C° 0.3 mm 3 mps 711 mmHg 82%
    23:00 +12°C° 0.1 mm 3 mps 711 mmHg 82%

    Tomorrow, 24 April, Wednesday

    Time Temperature Precipitation Wind Pressure Humidity
    00:00 +13°C° 0.1 mm 2 mps 712 mmHg 82%
    01:00 +13°C° 0.1 mm 2 mps 712 mmHg 82%
    02:00 +13°C° 0 mm 2 mps 713 mmHg 82%
    03:00 +13°C° 0 mm 2 mps 713 mmHg 82%
    04:00 +13°C° 0 mm 2 mps 713 mmHg 82%
    05:00 +13°C° 0.4 mm 2 mps 714 mmHg 82%
    06:00 +14°C° 0.4 mm 2 mps 714 mmHg 83%
    07:00 +14°C° 0.4 mm 1 mps 715 mmHg 84%
    08:00 +16°C° 0 mm 2 mps 715 mmHg 77%
    09:00 +17°C° 0 mm 2 mps 716 mmHg 71%
    10:00 +19°C° 0 mm 2 mps 716 mmHg 64%
    11:00 +20°C° 0.1 mm 3 mps 716 mmHg 60%
    12:00 +21°C° 0.1 mm 3 mps 716 mmHg 56%
    13:00 +22°C° 0.1 mm 4 mps 716 mmHg 52%
    14:00 +22°C° 0 mm 4 mps 716 mmHg 53%
    15:00 +22°C° 0 mm 4 mps 715 mmHg 54%
    16:00 +23°C° 0 mm 5 mps 715 mmHg 55%
    17:00 +21°C° 0 mm 4 mps 715 mmHg 61%
    18:00 +20°C° 0 mm 3 mps 715 mmHg 68%
    19:00 +18°C° 0 mm 3 mps 715 mmHg 74%
    20:00 +14°C° 1 mm 3 mps 716 mmHg 78%
    21:00 +12°C° 1 mm 4 mps 718 mmHg 81%
    22:00 +8°C° 1 mm 5 mps 719 mmHg 85%
    23:00 +9°C° 0 mm 3 mps 719 mmHg 85%

    Day after tomorrow, 25 April, Thursday

    Time Temperature Precipitation Wind Pressure Humidity
    00:00 +8°C° 0 mm 2 mps 720 mmHg 86%
    01:00 +7°C° 0 mm 0 mps 720 mmHg 86%
    02:00 +8°C° 0 mm 1 mps 720 mmHg 86%
    03:00 +7°C° 0 mm 2 mps 720 mmHg 86%
    04:00 +7°C° 0 mm 2 mps 720 mmHg 86%
    05:00 +8°C° 0 mm 3 mps 720 mmHg 85%
    06:00 +8°C° 0 mm 3 mps 720 mmHg 83%
    07:00 +8°C° 0 mm 4 mps 720 mmHg 82%
    08:00 +11°C° 0 mm 4 mps 720 mmHg 73%
    09:00 +14°C° 0 mm 5 mps 720 mmHg 65%
    10:00 +16°C° 0 mm 5 mps 720 mmHg 57%
    11:00 +17°C° 0 mm 5 mps 720 mmHg 55%
    12:00 +20°C° 0 mm 4 mps 720 mmHg 53%
    13:00 +21°C° 0 mm 4 mps 720 mmHg 51%
    14:00 +22°C° 0 mm 3 mps 719 mmHg 51%
    15:00 +22°C° 0 mm 3 mps 719 mmHg 51%
    16:00 +23°C° 0 mm 2 mps 718 mmHg 51%
    17:00 +21°C° 0 mm 2 mps 718 mmHg 57%
    18:00 +20°C° 0 mm 2 mps 717 mmHg 63%
    19:00 +19°C° 0 mm 1 mps 717 mmHg 68%
    20:00 +18°C° 0 mm 1 mps 717 mmHg 71%
    21:00 +16°C° 0 mm 2 mps 718 mmHg 74%
    22:00 +15°C° 0 mm 2 mps 718 mmHg 76%
    23:00 +13°C° 0 mm 3 mps 718 mmHg 81%

    26 April, Friday

    Time Temperature Precipitation Wind Pressure Humidity
    00:00 +12°C° 0 mm 4 mps 718 mmHg 86%
    01:00 +10°C° 0 mm 5 mps 719 mmHg 91%
    02:00 +9°C° 0 mm 5 mps 719 mmHg 93%
    03:00 +8°C° 0 mm 4 mps 719 mmHg 95%
    04:00 +7°C° 0 mm 4 mps 720 mmHg 96%
    05:00 +7°C° 0 mm 5 mps 720 mmHg 92%
    06:00 +7°C° 0 mm 6 mps 721 mmHg 88%
    07:00 +7°C° 0 mm 6 mps 721 mmHg 84%
    08:00 +8°C° 0 mm 6 mps 722 mmHg 80%
    09:00 +9°C° 0 mm 6 mps 723 mmHg 76%
    10:00 +10°C° 0 mm 6 mps 723 mmHg 72%
    11:00 +9°C° 0.1 mm 6 mps 723 mmHg 74%
    12:00 +9°C° 0.1 mm 6 mps 724 mmHg 75%
    13:00 +9°C° 0.1 mm 6 mps 724 mmHg 77%
    14:00 +8°C° 0.4 mm 5 mps 724 mmHg 79%
    15:00 +8°C° 0.4 mm 4 mps 724 mmHg 82%
    16:00 +8°C° 0.4 mm 4 mps 725 mmHg 85%
    17:00 +9°C° 0 mm 3 mps 725 mmHg 86%
    18:00 +8°C° 0 mm 3 mps 725 mmHg 87%
    19:00 +8°C° 0 mm 2 mps 725 mmHg 88%
    20:00 +8°C° 0 mm 2 mps 725 mmHg 89%
    21:00 +7°C° 0 mm 3 mps 726 mmHg 90%
    22:00 +7°C° 0 mm 3 mps 726 mmHg 91%
    23:00 +7°C° 0 mm 3 mps 726 mmHg 90%

    27 April, Saturday

    Time Temperature Precipitation Wind Pressure Humidity
    00:00 +5°C° 0 mm 3 mps 725 mmHg 89%
    01:00 +5°C° 0 mm 3 mps 725 mmHg 88%
    02:00 +5°C° 0 mm 3 mps 725 mmHg 90%
    03:00 +5°C° 0 mm 3 mps 725 mmHg 91%
    04:00 +5°C° 0 mm 4 mps 725 mmHg 93%
    05:00 +6°C° 0 mm 4 mps 726 mmHg 92%
    06:00 +6°C° 0 mm 4 mps 726 mmHg 91%
    07:00 +7°C° 0 mm 5 mps 726 mmHg 89%
    08:00 +8°C° 0.2 mm 5 mps 727 mmHg 89%
    09:00 +8°C° 0.2 mm 6 mps 727 mmHg 88%
    10:00 +8°C° 0.2 mm 6 mps 727 mmHg 88%
    11:00 +9°C° 0.4 mm 7 mps 728 mmHg 82%
    12:00 +10°C° 0.4 mm 7 mps 728 mmHg 76%
    13:00 +11°C° 0.4 mm 7 mps 728 mmHg 70%
    14:00 +11°C° 0.2 mm 7 mps 729 mmHg 70%
    15:00 +10°C° 0.2 mm 8 mps 729 mmHg 70%
    16:00 +10°C° 0.2 mm 8 mps 729 mmHg 71%
    17:00 +9°C° 0.2 mm 6 mps 729 mmHg 75%
    18:00 +9°C° 0.2 mm 5 mps 730 mmHg 79%
    19:00 +8°C° 0.2 mm 4 mps 730 mmHg 82%
    20:00 +8°C° 0.1 mm 3 mps 730 mmHg 86%
    21:00 +7°C° 0.1 mm 3 mps 731 mmHg 89%
    22:00 +6°C° 0.1 mm 2 mps 731 mmHg 92%
    23:00 +6°C° 0 mm 2 mps 731 mmHg 92%

    28 April, Sunday

    Time Temperature Precipitation Wind Pressure Humidity
    00:00 +6°C° 0 mm 2 mps 731 mmHg 92%
    01:00 +4°C° 0 mm 3 mps 731 mmHg 93%
    02:00 +4°C° 0 mm 3 mps 731 mmHg 93%
    03:00 +4°C° 0 mm 3 mps 731 mmHg 94%
    04:00 +4°C° 0 mm 4 mps 730 mmHg 95%
    05:00 +4°C° 0.9 mm 4 mps 730 mmHg 94%
    06:00 +5°C° 0.9 mm 4 mps 730 mmHg 94%
    07:00 +5°C° 0.9 mm 4 mps 730 mmHg 93%
    08:00 +6°C° 0.1 mm 4 mps 730 mmHg 92%
    09:00 +7°C° 0.1 mm 4 mps 730 mmHg 92%
    10:00 +8°C° 0.1 mm 5 mps 730 mmHg 91%
    11:00 +9°C° 0.3 mm 5 mps 730 mmHg 86%
    12:00 +10°C° 0.3 mm 5 mps 729 mmHg 82%
    13:00 +11°C° 0.3 mm 6 mps 729 mmHg 77%
    14:00 +10°C° 0.8 mm 5 mps 729 mmHg 80%
    15:00 +10°C° 0.8 mm 4 mps 728 mmHg 84%
    16:00 +10°C° 0.8 mm 3 mps 728 mmHg 87%
    17:00 +9°C° 0.4 mm 2 mps 728 mmHg 89%
    18:00 +9°C° 0.4 mm 2 mps 728 mmHg 91%
    19:00 +9°C° 0.4 mm 1 mps 728 mmHg 93%
    20:00 +8°C° 0.9 mm 2 mps 728 mmHg 95%
    21:00 +8°C° 0.9 mm 2 mps 728 mmHg 96%
    22:00 +8°C° 0.9 mm 2 mps 728 mmHg 97%
    23:00 +8°C° 1.2 mm 2 mps 727 mmHg 97%
    Show more